CZ-3B R/B, 63663

Orbit data source: Space-Track

CZ-3B R/B, 63663 is space debris in HEO originally from a launch on Sun, 27 Apr 2025 UTC launched from the Xichang Space Center, China (XSC). Debris objects in space refer to the collection of defunct objects orbiting the Earth. Examples of debris include non-operational satellites, rocket bodies, and fragments generated from explosions, collisions, or faulty payload assembly.

Loading next visibility...
Identifier
63663, 2025-084B
Orbit
HEO
Country
Flag of CNCN / PRC
Related business
Manufacturer
CALT
Mission
Spacecraft
Bus & Motor
CZ-3A STAGE 3, Unknown motor
Mass
~2,800 kg wet, ~2,800 kg dry
Launch date (UTC)
2025-04-27 (1 year ago)
Launch vehicle
Unknown
Launch site
Xichang Space Center, China (XSC)
Object type
Payload
Rocket body
Debris
Shape & HBR
Cyl + 1 Nozzle, 4.2 m
Radar Cross Section
32.704 m², Large (>1 m²)

Expand to show TLE details & history
Last TLE update: 21 hours ago

TLE from 21 hours ago
0 CZ-3B R/B
1 63663U 25084B   26126.63915161  .00039124 -14305-6  21800-2 0  9994
2 63663  27.1852 295.0168 6996208  79.0592 346.6743  2.68224006  9387
Epoch: 2026-05-06T15:20Z
TLE epoch observation values (Epoch: 2026-05-06T15:20:22.699Z)
Latitude
-0.00008°
Longitude
-159.65111°
Altitude
3,474.951 km
Speed
7.918 km/s
True Right ascension
19h 39m 45s
True Declination
0° 00' 00"
Sunlit
Object was in daylight at epoch
Visualization orbit readout
Latitude
Unknown
Longitude
Unknown
Altitude
Unknown
Speed
Unknown
Apparent Right ascension
Unknown
Apparent Declination
Unknown
Sunlit
N/A
Visualization observer readout
Local Sidereal Time
20:46:15
Azimuth
Unknown
Elevation
Unknown
Doppler factor
Unknown
Orbital elements
Apogee altitude
30,817.981 km
Perigee altitude
195.647 km
Semi-major axis
21,884.951 km
Eccentricity
0.69962
Inclination
27.1852°
RAAN
295.0168°
Arg. of periapsis
79.0592°
True anomaly
281.34466°
Mean anomaly
346.6743°
Eccentric anomaly
321.98956°
Mean motion
0.67039 °/min
Orbital period
537 mins
BSTAR
0.00218
Loading maneuver chart data...
Computing Atmospheric mass density...
Loading historical data...
Loading historical data...
Loading historical data...
Loading historical data...
Loading historical data...
Loading historical data...
Loading historical data...
Other satellites on launch #84 in the year 2025 (2025-04-27 UTC)

Documentation

Showing up to 5 results
|